Cedar Rapids, IA

8:36 PM CDT on August 20, 2017 (GMT -0500)
The Eastern Iowa Airport

Weather History for KCID - October, 2013

Change the Weather History Date:

Tuesday, October 29, 2013

  Actual Average Record
Temperature  
Mean Temperature 47 °F 46 °F  
Max Temperature 59 °F 56 °F 84 °F (1937)
Min Temperature 37 °F 36 °F 0 °F (1925)
Degree Days  
Heating Degree Days 18 19  
Month to date heating degree days 406 415  
Since 1 July heating degree days 505 572  
Cooling Degree Days 0 0  
Month to date cooling degree days 19 8  
Year to date cooling degree days 884 748  
Moisture  
Dew Point 38 °F    
Average Humidity 68    
Maximum Humidity 89    
Minimum Humidity 47    
Precipitation  
Precipitation 0.00 in 0.08 in 0.87 in (1996)
Month to date precipitation 2.45 2.46  
Year to date precipitation 34.04 30.92  
Sea Level Pressure  
Sea Level Pressure 30.18 in    
Wind  
Wind Speed 10 mph (ESE)    
Max Wind Speed 14 mph    
Max Gust Speed 21 mph    
Visibility 9 miles    
Events      
T = Trace of Precipitation, MM = Missing Value Source: NWS Daily Summary

Daily Weather History Graph

Daily Weather History Graph

Search for Another Location

Airport or City:

Trip Planner

Search our weather history database for the weather conditions in past years. The results will help you decide how hot, cold, wet, or windy it might be!

Date:

Astronomy

Oct. 29, 2013 Rise Set
Actual Time 7:35 AM CDT 6:04 PM CDT
Civil Twilight 7:07 AM CDT 6:33 PM CDT
Nautical Twilight 6:34 AM CDT 7:06 PM CDT
Astronomical Twilight 6:01 AM CDT 7:38 PM CDT
Moon 2:21 AM CDT (10/29) 3:22 PM CDT (10/29)
Length of Visible Light 11h 26m
Length of Day
10h 28m
Waning Crescent, 25% of the Moon is Illuminated
Oct 29
Waning Crescent
Nov 3
New
Nov 9
First Quarter
Nov 17
Full
Nov 25
Last Quarter

Hourly Weather History & Observations

Time (CDT) Temp. Windchill Dew Point Humidity Pressure Visibility Wind Dir Wind Speed Gust Speed Precip Events Conditions
12:52 AM - - - N/A% 30.30 in 10.0 mi East 10.4 mph - N/A   Clear
1:52 AM - - - N/A% 30.30 in 10.0 mi East 9.2 mph 19.6 mph N/A   Clear
2:52 AM - - - N/A% 30.29 in 10.0 mi East 12.7 mph - N/A   Clear
3:52 AM - - - N/A% 30.28 in 10.0 mi East 10.4 mph - N/A   Clear
4:52 AM - - - N/A% 30.26 in 10.0 mi East 11.5 mph - N/A   Clear
5:52 AM - - - N/A% 30.25 in 10.0 mi East 12.7 mph - N/A   Clear
6:52 AM 37.4 °F 28.9 °F 31.1 °F 78% 30.27 in 10.0 mi East 13.8 mph 20.7 mph N/A   Clear
7:52 AM 37.4 °F 29.3 °F 34.9 °F 91% 30.25 in 10.0 mi East 12.7 mph 19.6 mph N/A   Clear
8:52 AM 39.2 °F 32.5 °F 35.6 °F 87% 30.27 in 10.0 mi ESE 10.4 mph - N/A   Clear
9:33 AM 39.2 °F 32.5 °F 35.6 °F 87% 30.24 in 1.5 mi ESE 10.4 mph - N/A   Clear
9:41 AM 39.2 °F 32.0 °F 35.6 °F 87% 30.24 in 7.0 mi ESE 11.5 mph - N/A   Clear
9:52 AM 41.0 °F 34.7 °F 35.6 °F 81% 30.26 in 7.0 mi East 10.4 mph 20.7 mph N/A   Clear
10:52 AM 44.6 °F 38.1 °F 35.1 °F 69% 30.24 in 8.0 mi ESE 13.8 mph - N/A   Clear
11:16 AM 44.6 °F 39.2 °F 37.4 °F 76% 30.21 in 8.0 mi East 10.4 mph - N/A   Clear
11:52 AM 50.0 °F - 37.0 °F 61% 30.20 in 9.0 mi ESE 12.7 mph - N/A   Clear
12:52 PM 55.0 °F - 36.0 °F 49% 30.16 in 10.0 mi SE 12.7 mph - N/A   Clear
1:52 PM 57.9 °F - 37.9 °F 47% 30.13 in 10.0 mi SE 9.2 mph - N/A   Partly Cloudy
2:52 PM 57.0 °F - 37.9 °F 49% 30.11 in 10.0 mi ESE 11.5 mph - N/A   Overcast
3:52 PM 55.9 °F - 37.9 °F 51% 30.09 in 10.0 mi SE 8.1 mph - N/A   Overcast
4:52 PM 55.0 °F - 37.0 °F 51% 30.09 in 10.0 mi SE 11.5 mph - N/A   Overcast
5:52 PM 54.0 °F - 37.9 °F 55% 30.07 in 10.0 mi ESE 10.4 mph - N/A   Overcast
6:52 PM 53.1 °F - 37.9 °F 57% 30.09 in 10.0 mi East 8.1 mph - N/A   Overcast
7:50 PM 53.6 °F - 41.0 °F 62% 30.07 in 9.0 mi SE 10.4 mph - N/A   Overcast
7:52 PM 53.1 °F - 42.1 °F 66% 30.09 in 9.0 mi SE 10.4 mph - N/A   Overcast
8:52 PM 50.0 °F - 39.9 °F 68% 30.09 in 9.0 mi ESE 6.9 mph - N/A   Mostly Cloudy
9:27 PM 50.0 °F - 39.2 °F 66% 30.08 in 9.0 mi ESE 5.8 mph - N/A   Overcast
9:52 PM 50.0 °F - 41.0 °F 71% 30.09 in 9.0 mi ESE 5.8 mph - N/A   Overcast
10:52 PM 50.0 °F - 41.0 °F 71% 30.09 in 9.0 mi ESE 5.8 mph - N/A   Overcast
11:52 PM 52.0 °F - 44.1 °F 74% 30.06 in 7.0 mi SE 6.9 mph - N/A   Overcast